Regional Weather Roundup
Issued by NWS

Home | Current Version | Previous Version | Graphics & Text | Print | Product List | Glossary On
Versions: 1 2 3 4 5 6 7 8 9 10 11 12 13 14 15 16 17 18 19 20 21 22 23 24 25 26 27 28 29 30 31 32 33 34 35 36 37 38 39 40 41 42 43 44 45 46 47 48 49 50
000
ASUS43 KMPX 181101
RWRMN
WEATHER ROUNDUP FOR MINNESOTA
NATIONAL WEATHER SERVICE TWIN CITIES/CHANHASSEN MN
500 AM CST SAT NOV 18 2017


NOTE: "FAIR" INDICATES FEW OR NO CLOUDS BELOW 12,000 FEET WITH NO
SIGNIFICANT WEATHER AND/OR OBSTRUCTIONS TO VISIBILITY. N/A MEANS
CURRENT SKY AND/OR WEATHER CONDITIONS ARE NOT AVAILABLE.

MNZ060>063-068>070-181200-
   Twin Cities Metro

CITY           SKY/WX    TMP DP  RH WIND       PRES   REMARKS
TWIN CITIES    CLOUDY    34  33  96 N10       29.73R WCI  26
ST PAUL        CLOUDY    35  33  92 N7        29.74R WCI  29
CRYSTAL        CLOUDY    34  29  82 NW8       29.73R WCI  27
BLAINE         CLOUDY    34  34 100 NW10      29.74R WCI  26
LAKEVILLE      CLOUDY    34  34 100 N5        29.72S FOG     WCI  30
EDEN PRAIRIE   CLOUDY    35  31  85 NW12      29.73R WCI  27
SOUTH ST PAUL  CLOUDY    35  35 100 N7        29.72S WCI  29
LAKE ELMO      CLOUDY    34  32  93 N5        29.73R WCI  30
$$
MNZ001>005-007-008-013>017-022>024-027-028-181200-
   Northwest Minnesota

CITY           SKY/WX    TMP DP  RH WIND       PRES   REMARKS
BEMIDJI        CLEAR     14  12  92 NW6       29.80S WCI   5
HALLOCK        CLOUDY    16  10  79 NW8       29.88R WCI   5
ROSEAU         CLOUDY    16  10  79 W7        29.83R WCI   6
WARROAD        CLOUDY    12   9  85 W5        29.83R WCI   4
CROOKSTON      CLOUDY    18  14  86 NW8       29.89R WCI   7
FOSSTON        PTCLDY    12  12 100 NW3       29.84R
DETROIT LAKES  CLEAR     18  18 100 NW10      29.83S WCI   6
MOORHEAD       CLOUDY    18  14  86 CALM      29.88R
PARK RAPIDS    CLEAR     19  15  84 NW6       29.78S WCI  11
MAHNOMEN       FAIR      14  12  91 NW7       29.85R WCI   4
$$
MNZ006-009>011-018-025>026-181200-
   North Central Minnesota

CITY           SKY/WX    TMP DP  RH WIND       PRES   REMARKS
BAUDETTE       MOCLDY    15  12  88 W8        29.80R WCI   4
FLAG ISLAND    PTCLDY    12   9  85 NW10      29.80S WCI  -1
INTL FALLS     PTCLDY    13  10  88 W5        29.77R FOG     WCI   5
WASKISH        MOCLDY    16  14  93 W6        29.82R WCI   7
BIG FORK       PTCLDY    16  12  86 CALM      29.77S
LONGVILLE      PTCLDY    21  18  86 N3        29.78S
GRAND RAPIDS   PTCLDY    21  17  84 N10       29.77F WCI  10
CRANE LAKE     CLEAR     18  18 100 CALM      29.78R FOG
ORR            CLOUDY    18  14  86 CALM      29.74R
COOK           MOCLDY    18  18 100 CALM      29.76R
WALKER         FAIR      17  13  86 NW5       29.79R WCI  10
$$
MNZ012-019>021-037-181200-
   Northeast Minnesota

CITY           SKY/WX    TMP DP  RH WIND       PRES   REMARKS
DULUTH         CLOUDY    27  25  92 NW8       29.71R WCI  19
ELY            CLOUDY    27  23  86 W8        29.73R WCI  18
HIBBING        CLOUDY    21  17  84 NW8       29.74R WCI  11
EVELETH        MOCLDY    23  18  80 N3        29.76R
DULUTH HARBOR  CLOUDY    32  28  86 NW12      29.76R WCI  23
TWO HARBORS    CLOUDY    34  28  80 NW3       29.70R
SILVER BAY     CLOUDY    32  28  86 CALM      29.68R
GRAND MARAIS     N/A     33  29  85 VRB3      29.70R
G MARAIS ARPRT CLOUDY    27  21  80 CALM      29.65R
$$
MNZ029>031-032-039>041-046>048-054>057-064-181200-
   West Central Minnesota

CITY           SKY/WX    TMP DP  RH WIND       PRES   REMARKS
FERGUS FALLS   CLEAR     18  16  93 NW8       29.88R WCI   7
WHEATON        PTCLDY    19  16  86 NW7       29.89R WCI  10
MORRIS         PTCLDY    21  18  86 NW12      29.84R WCI   9
ALEXANDRIA     CLOUDY    23  19  85 N5        29.80R WCI  17
ELBOW LAKE     FAIR      19  17  90 W12       29.85R WCI   7
WADENA         PTCLDY    19  18  93 CALM      29.79R
GLENWOOD       CLOUDY    25  21  86 NW10      29.81R WCI  15
APPLETON       MOCLDY    25  18  74 NW13      29.85R WCI  13
BENSON         CLOUDY    23  18  80 N9        29.83S WCI  13
ORTONVILLE     CLOUDY    23  18  80 MISG      29.86R
MADISON        CLOUDY    27  21  80 NW9       29.86R WCI  17
WILLMAR        FAIR      28  25  86 NW15      29.82R WCI  17
$$
MNZ033>034-036-042>043-049>051-058-059-181200-
   Central Minnesota

CITY           SKY/WX    TMP DP  RH WIND       PRES   REMARKS
ST CLOUD       CLOUDY    30  27  88 NW9       29.78R WCI  22
SAUK CENTRE    FAIR      26  22  83 NW13      29.80R WCI  15
PAYNESVILLE    CLOUDY    30  27  89 NW7       29.80R WCI  23
AITKIN         CLOUDY    23  19  86 NW5       29.75S WCI  17
PINE RIVER     PTCLDY    21  18  86 NW5       29.82R WCI  15
BRAINERD       CLOUDY    26  20  77 NW9       29.78R WCI  17
STAPLES        PTCLDY    21  18  86 NW5       29.79R WCI  15
LONG PRAIRIE   FAIR      27  21  80 W8        29.79R WCI  18
LITTLE FALLS   PTCLDY    28  19  69 NW7       29.79R WCI  21
LITCHFIELD     CLOUDY    30  28  93 NW8       29.78R WCI  23
BUFFALO        MOCLDY    32  28  86 NW6       29.77R WCI  26
MAPLE LAKE     MOCLDY    32  31  96 NW9       29.78R WCI  24
HUTCHINSON     PTCLDY    32  30  91 NW10      29.77R WCI  24
$$
MNZ037-044-045-052-053-181200-
   East Central Minnesota

CITY           SKY/WX    TMP DP  RH WIND       PRES   REMARKS
PRINCETON      CLOUDY    32  30  93 NW3       29.76R
MORA           CLOUDY    30  28  93 N7        29.75S WCI  23
CAMBRIDGE      CLOUDY    34  34 100 NW3       29.75R
RUSH CITY      CLOUDY    32  30  92 N6        29.74R WCI  26
MOOSE LAKE     MOCLDY    28  25  86 N7        29.72S WCI  21
HINCKLEY       CLOUDY    32  30  93 N9        29.73F WCI  24
CLOQUET        CLOUDY    27  23  86 NW8       29.72S WCI  18
MCGREGOR       CLOUDY    27  23  86 N7        29.75S WCI  19
$$
MNZ071>073-080-081-089-090-097-098-181200-
   Southwest Minnesota

CITY           SKY/WX    TMP DP  RH WIND       PRES   REMARKS
MONTEVIDEO     CLOUDY    25  19  80 N9        29.83R WCI  15
GRANITE FALLS  PTCLDY    28  23  81 NW14      29.84R WCI  17
CANBY          CLOUDY    27  22  80 W12       29.85S WCI  17
MARSHALL       CLOUDY    27  21  78 NW14      29.83R WCI  16
REDWOOD FALLS  MOCLDY    29  21  72 NW10      29.79R WCI  20
OLIVIA         CLOUDY    30  27  86 NW13      29.79R WCI  20
PIPESTONE      CLOUDY    30  21  69 N7        29.78S WCI  23
WINDOM           N/A     28  16  59 NW17G25   29.76R WCI  16
WORTHINGTON    CLOUDY    29  23  78 N18       29.78R WCI  16
JACKSON        CLOUDY    30  27  86 NW15G25   29.75R WCI  19
SLAYTON        CLOUDY    28  24  82 NW14G22   29.78R WCI  17
$$
MNZ065>067-074>077-082>085-091>093-181200-
   South Central Minnesota

CITY           SKY/WX    TMP DP  RH WIND       PRES   REMARKS
MANKATO        CLOUDY    34  31  88 NW12      29.74R WCI  25
NEW ULM        CLOUDY    30  27  86 NW7G17    29.76R WCI  23
ST JAMES       CLOUDY    30  27  86 NW16      29.76R WCI  19
FAIRMONT       MOCLDY    31  29  92 N16       29.73S WCI  20
GLENCOE        CLOUDY    34  34 100 NW9       29.75R WCI  27
FARIBAULT      CLOUDY    36  34  93 NW9       29.72R FOG
OWATONNA       CLOUDY    36  34  93 NW13      29.71R FOG
WASECA         CLOUDY    34  32  93 N12       29.73R FOG     WCI  25
ALBERT LEA     CLOUDY    34  34 100 N15       29.70R FOG     WCI  24
$$
MNZ078>079-086>088-094>096-181200-
   Southeast Minnesota

CITY           SKY/WX    TMP DP  RH WIND       PRES   REMARKS
ROCHESTER      CLOUDY    34  34 100 N15       29.65S FOG     WCI  24
RED WING       CLOUDY    36  32  87 N5        29.70R
DODGE CENTER   CLOUDY    34  34 100 N15G21    29.66F FOG     WCI  24
WINONA         CLOUDY    36  34  93 NW9       29.67S
AUSTIN         CLOUDY    36  34  93 N9        29.67R FOG
PRESTON        CLOUDY    33  32  96 N13       29.65R FOG     WCI  24
$$
ABBREVIATIONS USED IN REMARKS
   TC - TEMPERATURES IN CELSIUS
  WCI - WIND CHILL INDEX
   HX - HEAT INDEX
  VSB - VISIBILITY
$$




USA.gov is the U.S. government's official web portal to all federal, state and local government web resources and services.